Location: Dumpton Point
(51.3500°N, 1.4433°E)
Time: 18:53:32
(UTC+00:00)

MOS 1-B Rocket - Pass Details

Date: 09 April 2020
Orbit: 891 x 1605 km, 99.1° (Epoch: 25 May)

Event Time Altitude Azimuth Distance (km) Brightness Sun altitude
Rises 23:31:15 0° 17° (NNE) 3,677 8.0 -30.4°
Reaches altitude 10° 23:33:36 10° 20° (NNE) 2,790 7.1 -30.4°
Enters shadow 23:39:49 67° 101° (E) 1,200 4.3 -30.5°
